Time,TemperatureF,DewpointF,PressureIn,WindDirection,WindDirectionDegrees,WindSpeedMPH,WindSpeedGustMPH,Humidity,HourlyPrecipIn,Conditions,Clouds,dailyrainin,SoftwareType,DateUTC
2013-08-15 00:03:00,60.3,5.5,23.80,ESE,104,6.0,11.2,11,0.00,,,-99.99,FreeWX 2.04,2013-08-15 06:03:00,
2013-08-15 00:13:00,60.1,5.4,23.80,ESE,106,6.0,11.0,11,0.00,,,-99.99,FreeWX 2.04,2013-08-15 06:13:00,
2013-08-15 00:23:00,60.6,5.9,23.80,ESE,108,6.0,11.0,11,0.00,,,-99.99,FreeWX 2.04,2013-08-15 06:23:00,
2013-08-15 00:33:00,60.6,5.9,23.80,ESE,113,7.0,12.1,11,0.00,,,-99.99,FreeWX 2.04,2013-08-15 06:33:00,
2013-08-15 00:44:00,61.3,6.4,23.80,ESE,118,7.0,11.2,11,0.00,,,-99.99,FreeWX 2.04,2013-08-15 06:44:00,
2013-08-15 00:54:00,61.3,6.4,23.80,ESE,122,7.0,14.3,11,0.00,,,-99.99,FreeWX 2.04,2013-08-15 06:54:00,
2013-08-15 01:04:00,61.3,6.4,23.80,ESE,120,7.0,11.2,11,0.00,,,-99.99,FreeWX 2.04,2013-08-15 07:04:00,
2013-08-15 01:14:00,61.2,6.3,23.80,ESE,117,7.0,12.1,11,0.00,,,-99.99,FreeWX 2.04,2013-08-15 07:14:00,
2013-08-15 01:24:00,60.8,5.9,23.80,ESE,120,7.0,12.1,11,0.00,,,-99.99,FreeWX 2.04,2013-08-15 07:24:00,
2013-08-15 01:34:00,60.6,5.9,23.80,ESE,121,7.0,11.2,11,0.00,,,-99.99,FreeWX 2.04,2013-08-15 07:34:00,
2013-08-15 01:44:00,60.4,5.7,23.80,ESE,119,7.0,12.5,11,0.00,,,-99.99,FreeWX 2.04,2013-08-15 07:44:00,
2013-08-15 01:54:00,60.8,5.9,23.80,ESE,114,7.0,11.2,11,0.00,,,-99.99,FreeWX 2.04,2013-08-15 07:54:00,
2013-08-15 02:04:00,60.4,5.7,23.80,ESE,117,7.0,12.5,11,0.00,,,-99.99,FreeWX 2.04,2013-08-15 08:04:00,
2013-08-15 02:14:00,59.9,5.4,23.80,ESE,114,7.0,11.2,11,0.00,,,-99.99,FreeWX 2.04,2013-08-15 08:14:00,
2013-08-15 02:24:00,60.1,5.4,23.80,ESE,118,7.0,11.2,11,0.00,,,-99.99,FreeWX 2.04,2013-08-15 08:24:00,
2013-08-15 02:34:00,60.6,5.9,23.80,ESE,118,7.0,13.0,11,0.00,,,-99.99,FreeWX 2.04,2013-08-15 08:34:00,
2013-08-15 02:44:00,60.4,5.7,23.80,ESE,112,7.0,12.5,11,0.00,,,-99.99,FreeWX 2.04,2013-08-15 08:44:00,
2013-08-15 02:54:00,59.9,5.4,23.80,ESE,104,7.0,13.0,11,0.00,,,-99.99,FreeWX 2.04,2013-08-15 08:54:00,
2013-08-15 03:04:00,59.4,6.8,23.80,ESE,119,6.0,11.0,12,0.00,,,-99.99,FreeWX 2.04,2013-08-15 09:04:00,
2013-08-15 03:14:00,60.3,5.5,23.80,SE,124,8.0,12.5,11,0.00,,,-99.99,FreeWX 2.04,2013-08-15 09:14:00,
2013-08-15 03:24:00,60.3,5.5,23.80,ESE,111,6.0,11.6,11,0.00,,,-99.99,FreeWX 2.04,2013-08-15 09:24:00,
2013-08-15 03:34:00,60.1,5.4,23.80,ESE,109,7.0,12.5,11,0.00,,,-99.99,FreeWX 2.04,2013-08-15 09:34:00,
2013-08-15 03:44:00,59.7,7.0,23.80,ESE,113,7.0,13.4,12,0.00,,,-99.99,FreeWX 2.04,2013-08-15 09:44:00,
2013-08-15 03:54:00,59.5,7.0,23.80,ESE,104,6.0,11.2,12,0.00,,,-99.99,FreeWX 2.04,2013-08-15 09:54:00,
2013-08-15 04:04:00,59.9,5.4,23.80,ESE,117,6.0,11.6,11,0.00,,,-99.99,FreeWX 2.04,2013-08-15 10:04:00,
2013-08-15 04:14:00,59.5,7.0,23.80,ESE,109,5.0,9.6,12,0.00,,,-99.99,FreeWX 2.04,2013-08-15 10:14:00,
2013-08-15 04:24:00,58.5,6.1,23.80,East,97,5.0,9.2,12,0.00,,,-99.99,FreeWX 2.04,2013-08-15 10:24:00,
2013-08-15 04:34:00,58.3,5.9,23.80,East,100,5.0,9.6,12,0.00,,,-99.99,FreeWX 2.04,2013-08-15 10:34:00,
2013-08-15 04:44:00,59.0,6.4,23.80,ESE,102,6.0,10.5,12,0.00,,,-99.99,FreeWX 2.04,2013-08-15 10:44:00,
2013-08-15 04:54:00,59.0,6.4,23.80,ESE,106,6.0,11.2,12,0.00,,,-99.99,FreeWX 2.04,2013-08-15 10:54:00,
2013-08-15 05:04:00,57.6,5.4,23.80,East,94,5.0,9.6,12,0.00,,,-99.99,FreeWX 2.04,2013-08-15 11:04:00,
2013-08-15 05:14:00,57.2,5.0,23.80,East,89,4.0,7.8,12,0.00,,,-99.99,FreeWX 2.04,2013-08-15 11:14:00,
2013-08-15 05:24:00,57.2,5.0,23.83,East,96,4.0,10.5,12,0.00,,,-99.99,FreeWX 2.04,2013-08-15 11:24:00,
2013-08-15 05:34:00,57.6,5.4,23.83,East,97,5.0,10.1,12,0.00,,,-99.99,FreeWX 2.04,2013-08-15 11:34:00,
2013-08-15 05:44:00,57.0,5.0,23.83,East,86,4.0,11.0,12,0.00,,,-99.99,FreeWX 2.04,2013-08-15 11:44:00,
2013-08-15 05:54:00,57.6,5.4,23.83,East,98,5.0,12.1,12,0.00,,,-99.99,FreeWX 2.04,2013-08-15 11:54:00,
2013-08-15 06:04:00,57.7,5.5,23.83,ESE,112,6.0,11.2,12,0.00,,,-99.99,FreeWX 2.04,2013-08-15 12:04:00,
2013-08-15 06:14:00,58.3,5.9,23.83,East,100,5.0,11.6,12,0.00,,,-99.99,FreeWX 2.04,2013-08-15 12:14:00,
2013-08-15 06:24:00,57.6,5.4,23.83,East,99,6.0,10.5,12,0.00,,,-99.99,FreeWX 2.04,2013-08-15 12:24:00,
2013-08-15 06:34:00,57.4,5.2,23.83,East,97,4.0,10.5,12,0.00,,,-99.99,FreeWX 2.04,2013-08-15 12:34:00,
2013-08-15 06:44:00,57.9,5.7,23.83,ESE,118,7.0,12.5,12,0.00,,,-99.99,FreeWX 2.04,2013-08-15 12:44:00,
2013-08-15 06:54:00,58.1,5.7,23.83,ESE,111,6.0,11.6,12,0.00,,,-99.99,FreeWX 2.04,2013-08-15 12:54:00,
2013-08-15 07:04:00,58.1,5.7,23.83,ESE,109,6.0,10.1,12,0.00,,,-99.99,FreeWX 2.04,2013-08-15 13:04:00,
2013-08-15 07:14:00,58.5,6.1,23.83,ESE,112,6.0,12.5,12,0.00,,,-99.99,FreeWX 2.04,2013-08-15 13:14:00,
2013-08-15 07:24:00,58.8,6.3,23.83,ESE,112,7.0,11.6,12,0.00,,,-99.99,FreeWX 2.04,2013-08-15 13:24:00,
2013-08-15 07:34:00,59.2,6.6,23.83,ESE,112,6.0,13.4,12,0.00,,,-99.99,FreeWX 2.04,2013-08-15 13:34:00,
2013-08-15 07:44:00,59.5,7.0,23.83,ESE,106,6.0,11.2,12,0.00,,,-99.99,FreeWX 2.04,2013-08-15 13:44:00,
2013-08-15 07:54:00,59.7,7.0,23.83,ESE,114,7.0,11.2,12,0.00,,,-99.99,FreeWX 2.04,2013-08-15 13:54:00,
2013-08-15 08:04:00,59.7,7.0,23.83,ESE,112,6.0,10.5,12,0.00,,,-99.99,FreeWX 2.04,2013-08-15 14:04:00,
2013-08-15 08:15:00,60.4,5.7,23.83,ESE,114,6.0,11.2,11,0.00,,,-99.99,FreeWX 2.04,2013-08-15 14:15:00,
2013-08-15 08:24:00,61.2,6.3,23.86,ESE,106,6.0,10.1,11,0.00,,,-99.99,FreeWX 2.04,2013-08-15 14:24:00,
2013-08-15 08:35:00,61.7,6.6,23.86,ESE,108,6.0,11.0,11,0.00,,,-99.99,FreeWX 2.04,2013-08-15 14:35:00,
2013-08-15 08:45:00,61.9,6.8,23.86,ESE,114,6.0,10.5,11,0.00,,,-99.99,FreeWX 2.04,2013-08-15 14:45:00,
2013-08-15 08:55:00,62.2,7.2,23.86,ESE,115,6.0,11.0,11,0.00,,,-99.99,FreeWX 2.04,2013-08-15 14:55:00,
2013-08-15 09:05:00,63.3,7.9,23.86,ESE,114,6.0,10.5,11,0.00,,,-99.99,FreeWX 2.04,2013-08-15 15:05:00,
2013-08-15 09:15:00,64.6,-99.9,23.86,ESE,108,6.0,9.2,-999,0.00,,,-99.99,FreeWX 2.04,2013-08-15 15:15:00,
2013-08-15 09:25:00,65.8,-99.9,23.86,ESE,115,6.0,13.0,-999,0.00,,,-99.99,FreeWX 2.04,2013-08-15 15:25:00,
2013-08-15 09:35:00,66.7,-99.9,23.86,ESE,118,5.0,8.7,-999,0.00,,,-99.99,FreeWX 2.04,2013-08-15 15:35:00,
2013-08-15 09:45:00,67.6,-99.9,23.86,ESE,116,5.0,11.0,-999,0.00,,,-99.99,FreeWX 2.04,2013-08-15 15:45:00,
2013-08-15 09:55:00,69.1,14.4,23.86,ESE,110,5.0,8.7,12,0.00,,,-99.99,FreeWX 2.04,2013-08-15 15:55:00,
2013-08-15 10:05:00,70.9,13.8,23.86,ESE,116,4.0,6.9,11,0.00,,,-99.99,FreeWX 2.04,2013-08-15 16:05:00,
2013-08-15 10:15:00,72.1,14.7,23.86,ESE,121,5.0,8.7,11,0.00,,,-99.99,FreeWX 2.04,2013-08-15 16:15:00,
2013-08-15 10:25:00,73.8,16.0,23.86,ESE,116,4.0,6.9,11,0.00,,,-99.99,FreeWX 2.04,2013-08-15 16:25:00,
2013-08-15 10:35:00,75.6,-99.9,23.86,ESE,114,3.0,6.3,-999,0.00,,,-99.99,FreeWX 2.04,2013-08-15 16:35:00,
2013-08-15 10:45:00,77.9,-99.9,23.86,North,-999,0.0,4.5,-999,0.00,,,-99.99,FreeWX 2.04,2013-08-15 16:45:00,
2013-08-15 10:55:00,79.7,-99.9,23.86,North,-999,0.0,0.0,-999,0.00,,,-99.99,FreeWX 2.04,2013-08-15 16:55:00,
2013-08-15 11:05:00,80.2,-99.9,23.86,North,-999,0.0,4.0,-999,0.00,,,-99.99,FreeWX 2.04,2013-08-15 17:05:00,
2013-08-15 11:15:00,79.9,-99.9,23.86,North,-999,0.0,5.4,-999,0.00,,,-99.99,FreeWX 2.04,2013-08-15 17:15:00,
2013-08-15 11:25:00,79.5,-99.9,23.86,WNW,290,2.0,5.8,-999,0.00,,,-99.99,FreeWX 2.04,2013-08-15 17:25:00,
2013-08-15 11:35:00,80.2,-99.9,23.86,WNW,295,1.0,6.9,-999,0.00,,,-99.99,FreeWX 2.04,2013-08-15 17:35:00,
2013-08-15 11:45:00,80.4,-99.9,23.86,NNW,331,2.0,6.7,-999,0.00,,,-99.99,FreeWX 2.04,2013-08-15 17:45:00,
2013-08-15 11:55:00,81.3,-99.9,23.86,NW,318,4.0,8.3,-999,0.00,,,-99.99,FreeWX 2.04,2013-08-15 17:55:00,
2013-08-15 12:05:00,81.7,-99.9,23.86,WNW,292,2.0,7.4,-999,0.00,,,-99.99,FreeWX 2.04,2013-08-15 18:05:00,
2013-08-15 12:15:00,82.0,-99.9,23.86,NW,308,4.0,6.9,-999,0.00,,,-99.99,FreeWX 2.04,2013-08-15 18:15:00,
2013-08-15 12:25:00,82.2,-99.9,23.86,NW,308,3.0,9.2,-999,0.00,,,-99.99,FreeWX 2.04,2013-08-15 18:25:00,
2013-08-15 12:35:00,82.2,-99.9,23.83,NNW,335,4.0,9.6,-999,0.00,,,-99.99,FreeWX 2.04,2013-08-15 18:35:00,
2013-08-15 12:45:00,82.6,-99.9,23.83,North,352,6.0,11.2,-999,0.00,,,-99.99,FreeWX 2.04,2013-08-15 18:45:00,
2013-08-15 12:55:00,82.6,-99.9,23.83,North,352,6.0,11.2,-999,0.00,,,-99.99,FreeWX 2.04,2013-08-15 18:55:00,
2013-08-15 13:05:00,82.6,-99.9,23.83,NNW,338,6.0,13.0,-999,0.00,,,-99.99,FreeWX 2.04,2013-08-15 19:05:00,
2013-08-15 13:16:00,83.5,-99.9,23.83,North,359,4.0,11.2,-999,0.00,,,-99.99,FreeWX 2.04,2013-08-15 19:16:00,
2013-08-15 13:26:00,82.9,-99.9,23.83,NNW,334,7.0,12.5,-999,0.00,,,-99.99,FreeWX 2.04,2013-08-15 19:26:00,
2013-08-15 13:36:00,82.9,-99.9,23.83,NNW,339,5.0,10.1,-999,0.00,,,-99.99,FreeWX 2.04,2013-08-15 19:36:00,
2013-08-15 13:46:00,84.2,-99.9,23.83,NNW,336,1.0,6.9,-999,0.00,,,-99.99,FreeWX 2.04,2013-08-15 19:46:00,
2013-08-15 13:56:00,83.1,-99.9,23.83,NNE,19,3.0,11.2,-999,0.00,,,-99.99,FreeWX 2.04,2013-08-15 19:56:00,
2013-08-15 14:06:00,83.5,-99.9,23.83,NNW,348,4.0,10.1,-999,0.00,,,-99.99,FreeWX 2.04,2013-08-15 20:06:00,
2013-08-15 14:16:00,83.8,-99.9,23.83,NW,326,7.0,11.2,-999,0.00,,,-99.99,FreeWX 2.04,2013-08-15 20:16:00,
2013-08-15 14:26:00,84.7,-99.9,23.83,WNW,287,4.0,11.0,-999,0.00,,,-99.99,FreeWX 2.04,2013-08-15 20:26:00,
2013-08-15 14:36:00,84.2,-99.9,23.83,NNE,14,4.0,11.0,-999,0.00,,,-99.99,FreeWX 2.04,2013-08-15 20:36:00,
2013-08-15 14:46:00,83.5,-99.9,23.83,NE,46,4.0,10.1,-999,0.00,,,-99.99,FreeWX 2.04,2013-08-15 20:46:00,
2013-08-15 14:57:00,84.0,-99.9,23.83,NNW,331,5.0,11.0,-999,0.00,,,-99.99,FreeWX 2.04,2013-08-15 20:57:00,
2013-08-15 15:07:00,83.8,-99.9,23.83,NW,325,6.0,13.4,-999,0.00,,,-99.99,FreeWX 2.04,2013-08-15 21:07:00,
2013-08-15 15:17:00,85.1,-99.9,23.83,North,357,2.0,7.4,-999,0.00,,,-99.99,FreeWX 2.04,2013-08-15 21:17:00,
2013-08-15 15:27:00,84.4,-99.9,23.83,NW,319,5.0,11.6,-999,0.00,,,-99.99,FreeWX 2.04,2013-08-15 21:27:00,
2013-08-15 15:37:00,85.8,-99.9,23.83,WNW,287,1.0,6.7,-999,0.00,,,-99.99,FreeWX 2.04,2013-08-15 21:37:00,
2013-08-15 15:47:00,84.9,-99.9,23.83,NW,318,4.0,9.2,-999,0.00,,,-99.99,FreeWX 2.04,2013-08-15 21:47:00,
2013-08-15 15:57:00,86.9,-99.9,23.83,SW,232,2.0,9.6,-999,0.00,,,-99.99,FreeWX 2.04,2013-08-15 21:57:00,
2013-08-15 16:07:00,86.9,-99.9,23.80,SSE,152,2.0,6.9,-999,0.00,,,-99.99,FreeWX 2.04,2013-08-15 22:07:00,
2013-08-15 16:17:00,86.2,-99.9,23.80,NNW,346,2.0,6.3,-999,0.00,,,-99.99,FreeWX 2.04,2013-08-15 22:17:00,
2013-08-15 16:27:00,86.2,-99.9,23.80,NNE,30,2.0,8.7,-999,0.00,,,-99.99,FreeWX 2.04,2013-08-15 22:27:00,
2013-08-15 16:37:00,85.1,-99.9,23.80,NNW,330,5.0,9.2,-999,0.00,,,-99.99,FreeWX 2.04,2013-08-15 22:37:00,
2013-08-15 16:47:00,84.9,-99.9,23.80,NW,310,5.0,12.1,-999,0.00,,,-99.99,FreeWX 2.04,2013-08-15 22:47:00,
2013-08-15 16:57:00,84.9,-99.9,23.80,North,357,3.0,8.3,-999,0.00,,,-99.99,FreeWX 2.04,2013-08-15 22:57:00,
2013-08-15 17:07:00,84.6,-99.9,23.80,North,2,4.0,8.7,-999,0.00,,,-99.99,FreeWX 2.04,2013-08-15 23:07:00,
2013-08-15 17:17:00,83.7,-99.9,23.80,NNW,342,6.0,11.0,-999,0.00,,,-99.99,FreeWX 2.04,2013-08-15 23:17:00,
2013-08-15 17:27:00,84.0,-99.9,23.80,NNW,344,6.0,11.0,-999,0.00,,,-99.99,FreeWX 2.04,2013-08-15 23:27:00,
2013-08-15 17:37:00,84.2,-99.9,23.80,NW,326,6.0,11.2,-999,0.00,,,-99.99,FreeWX 2.04,2013-08-15 23:37:00,
2013-08-15 17:47:00,83.8,-99.9,23.80,NNW,348,6.0,11.6,-999,0.00,,,-99.99,FreeWX 2.04,2013-08-15 23:47:00,
2013-08-15 17:57:00,84.7,-99.9,23.80,North,0,4.0,10.5,-999,0.00,,,-99.99,FreeWX 2.04,2013-08-15 23:57:00,
2013-08-15 18:07:00,83.8,-99.9,23.80,NW,319,5.0,9.2,-999,0.00,,,-99.99,FreeWX 2.04,2013-08-16 00:07:00,
2013-08-15 18:17:00,84.0,-99.9,23.80,NW,307,4.0,7.4,-999,0.00,,,-99.99,FreeWX 2.04,2013-08-16 00:17:00,
2013-08-15 18:27:00,82.4,-99.9,23.80,North,351,6.0,8.7,-999,0.00,,,-99.99,FreeWX 2.04,2013-08-16 00:27:00,
2013-08-15 18:37:00,83.5,-99.9,23.80,NNW,347,3.0,6.7,-999,0.00,,,-99.99,FreeWX 2.04,2013-08-16 00:37:00,
2013-08-15 18:47:00,81.7,-99.9,23.80,NNW,345,5.0,8.7,-999,0.00,,,-99.99,FreeWX 2.04,2013-08-16 00:47:00,
2013-08-15 18:57:00,81.3,-99.9,23.80,North,352,4.0,7.4,-999,0.00,,,-99.99,FreeWX 2.04,2013-08-16 00:57:00,
2013-08-15 19:07:00,80.8,-99.9,23.80,NNW,348,4.0,7.4,-999,0.00,,,-99.99,FreeWX 2.04,2013-08-16 01:07:00,
2013-08-15 19:17:00,79.5,-99.9,23.80,North,349,5.0,8.3,-999,0.00,,,-99.99,FreeWX 2.04,2013-08-16 01:17:00,
2013-08-15 19:27:00,80.2,-99.9,23.80,North,357,3.0,6.9,-999,0.00,,,-99.99,FreeWX 2.04,2013-08-16 01:27:00,
2013-08-15 19:38:00,79.7,-99.9,23.80,North,8,1.0,5.8,-999,0.00,,,-99.99,FreeWX 2.04,2013-08-16 01:38:00,
2013-08-15 19:48:00,79.7,-99.9,23.80,NNE,14,4.0,8.3,-999,0.00,,,-99.99,FreeWX 2.04,2013-08-16 01:48:00,
2013-08-15 19:58:00,77.9,-99.9,23.80,North,358,2.0,7.8,-999,0.00,,,-99.99,FreeWX 2.04,2013-08-16 01:58:00,
2013-08-15 20:08:00,74.1,-99.9,23.80,North,-999,0.0,5.8,-999,0.00,,,-99.99,FreeWX 2.04,2013-08-16 02:08:00,
2013-08-15 20:18:00,70.5,-99.9,23.80,SE,129,6.0,9.2,-999,0.00,,,-99.99,FreeWX 2.04,2013-08-16 02:18:00,
2013-08-15 20:28:00,68.9,-99.9,23.80,SE,130,6.0,9.6,-999,0.00,,,-99.99,FreeWX 2.04,2013-08-16 02:28:00,
2013-08-15 20:38:00,68.2,-99.9,23.80,ESE,104,3.0,10.1,-999,0.00,,,-99.99,FreeWX 2.04,2013-08-16 02:38:00,
2013-08-15 20:48:00,65.3,-99.9,23.80,North,-999,0.0,4.5,-999,0.00,,,-99.99,FreeWX 2.04,2013-08-16 02:48:00,
2013-08-15 20:58:00,65.8,-99.9,23.80,East,94,4.0,11.6,-999,0.00,,,-99.99,FreeWX 2.04,2013-08-16 02:58:00,
2013-08-15 21:08:00,66.0,-99.9,23.83,East,97,5.0,10.1,-999,0.00,,,-99.99,FreeWX 2.04,2013-08-16 03:08:00,
2013-08-15 21:18:00,65.1,-99.9,23.83,East,91,4.0,8.3,-999,0.00,,,-99.99,FreeWX 2.04,2013-08-16 03:18:00,
2013-08-15 21:28:00,64.6,-99.9,23.83,East,94,5.0,10.1,-999,0.00,,,-99.99,FreeWX 2.04,2013-08-16 03:28:00,
2013-08-15 21:38:00,64.2,-99.9,23.83,East,97,5.0,9.6,-999,0.00,,,-99.99,FreeWX 2.04,2013-08-16 03:38:00,
2013-08-15 21:48:00,63.7,-99.9,23.83,East,94,5.0,10.5,-999,0.00,,,-99.99,FreeWX 2.04,2013-08-16 03:48:00,
2013-08-15 21:58:00,62.6,7.3,23.83,East,89,4.0,7.8,11,0.00,,,-99.99,FreeWX 2.04,2013-08-16 03:58:00,
2013-08-15 22:08:00,63.3,7.9,23.83,East,94,5.0,10.1,11,0.00,,,-99.99,FreeWX 2.04,2013-08-16 04:08:00,
2013-08-15 22:18:00,64.0,-99.9,23.83,ESE,103,6.0,11.6,-999,0.00,,,-99.99,FreeWX 2.04,2013-08-16 04:18:00,
2013-08-15 22:28:00,64.4,-99.9,23.83,East,100,7.0,11.2,-999,0.00,,,-99.99,FreeWX 2.04,2013-08-16 04:28:00,
2013-08-15 22:38:00,64.4,-99.9,23.83,East,101,7.0,11.0,-999,0.00,,,-99.99,FreeWX 2.04,2013-08-16 04:38:00,
2013-08-15 22:48:00,64.4,-99.9,23.83,ESE,106,7.0,14.3,-999,0.00,,,-99.99,FreeWX 2.04,2013-08-16 04:48:00,
2013-08-15 22:58:00,63.9,-99.9,23.83,ESE,102,6.0,11.2,-999,0.00,,,-99.99,FreeWX 2.04,2013-08-16 04:58:00,
2013-08-15 23:08:00,64.2,-99.9,23.83,ESE,110,7.0,13.4,-999,0.00,,,-99.99,FreeWX 2.04,2013-08-16 05:08:00,
2013-08-15 23:29:00,64.0,-99.9,23.83,ESE,119,7.0,12.5,-999,0.00,,,-99.99,FreeWX 2.04,2013-08-16 05:29:00,
2013-08-15 23:39:00,64.4,-99.9,23.83,ESE,120,7.0,11.6,-999,0.00,,,-99.99,FreeWX 2.04,2013-08-16 05:39:00,
2013-08-15 23:49:00,64.2,-99.9,23.83,ESE,120,7.0,11.0,-999,0.00,,,-99.99,FreeWX 2.04,2013-08-16 05:49:00,
2013-08-15 23:59:00,63.7,-99.9,23.83,ESE,119,6.0,12.1,-999,0.00,,,-99.99,FreeWX 2.04,2013-08-16 05:59:00,